| time (UTC) | temp F | wind direction | speed MPH | gust MPH | rain 1hr in | rain 24hr in | rain mn in | humidity % | barometer mb |
| 20260903160039 | 78 | 0 | 7.0 | 15.0 | 0.03 | 0.17 | 0.16 | 80 | 1016.2 |
| 20260903155814 | 78 | 0 | 9.0 | 15.0 | 0.03 | 0.14 | 0.16 | 80 | 1016.4 |
| 20260903155054 | 77 | 0 | 7.0 | 12.0 | 0.03 | 0.14 | 0.15 | 83 | 1016.5 |
| 20260903155047 | 78 | 243 | 6.0 | 13.0 | 0.03 | 0.14 | 0.16 | 80 | 1016.4 |
| 20260903154038 | 77 | 237 | 6.0 | 16.0 | 0.03 | 0.14 | 0.15 | 85 | 1016.5 |
| 20260903153537 | 77 | 274 | 8.0 | 16.0 | 0.03 | 0.14 | 0.15 | 82 | 1016.5 |
| 20260903153300 | 76 | 286 | 7.0 | 16.0 | 0.03 | 0.14 | 0.15 | 84 | 1016.5 |
| 20260903152537 | 76 | 247 | 9.0 | 14.0 | 0.03 | 0.14 | 0.14 | 85 | 1016.5 |
| 20260903152037 | 76 | 0 | 7.0 | 13.0 | 0.02 | 0.14 | 0.14 | 86 | 1016.4 |
| 20260903151759 | 76 | 0 | 7.0 | 14.0 | 0.03 | 0.14 | 0.14 | 87 | 1016.4 |
| 20260903151038 | 75 | 254 | 7.0 | 14.0 | 0.03 | 0.14 | 0.14 | 87 | 1016.4 |
| 20260903150537 | 75 | 274 | 8.0 | 15.0 | 0.03 | 0.14 | 0.14 | 87 | 1016.5 |
| 20260903150307 | 74 | 289 | 5.0 | 15.0 | 0.02 | 0.14 | 0.13 | 87 | 1016.4 |
| 20260903145537 | 74 | 302 | 6.0 | 13.0 | 0.02 | 0.12 | 0.13 | 88 | 1016.6 |
| 20260903145037 | 74 | 0 | 8.0 | 13.0 | 0.03 | 0.12 | 0.13 | 87 | 1016.5 |
| 20260903144538 | 73 | 0 | 8.0 | 13.0 | 0.03 | 0.12 | 0.13 | 89 | 1016.4 |
| 20260903144037 | 73 | 0 | 6.0 | 15.0 | 0.02 | 0.13 | 0.12 | 89 | 1016.5 |
| 20260903143537 | 73 | 0 | 8.0 | 15.0 | 0.02 | 0.13 | 0.12 | 89 | 1016.5 |
| 20260903143315 | 72 | 319 | 7.0 | 12.0 | 0.02 | 0.13 | 0.12 | 90 | 1016.6 |
| 20260903142538 | 72 | 227 | 5.0 | 11.0 | 0.02 | 0.13 | 0.12 | 91 | 1016.5 |
| 20260903142038 | 71 | 0 | 4.0 | 10.0 | 0.03 | 0.13 | 0.12 | 91 | 1016.6 |
| 20260903141537 | 71 | 0 | 4.0 | 12.0 | 0.02 | 0.13 | 0.11 | 92 | 1016.5 |
| 20260903141037 | 71 | 274 | 4.0 | 14.0 | 0.02 | 0.13 | 0.11 | 93 | 1016.5 |
| 20260903140537 | 70 | 252 | 7.0 | 14.0 | 0.02 | 0.13 | 0.11 | 94 | 1016.5 |
| 20260903140037 | 70 | 290 | 7.0 | 13.0 | 0.03 | 0.13 | 0.11 | 95 | 1016.6 |
| 20260903135538 | 69 | 298 | 5.0 | 11.0 | 0.03 | 0.10 | 0.11 | 96 | 1016.5 |
| 20260903135036 | 69 | 259 | 6.0 | 11.0 | 0.02 | 0.10 | 0.10 | 96 | 1016.6 |
| 20260903134536 | 69 | 298 | 4.0 | 9.0 | 0.00 | 0.10 | 0.10 | 96 | 1016.6 |
| 20260903134037 | 68 | 237 | 1.0 | 9.0 | 0.00 | 0.10 | 0.10 | 96 | 1016.6 |
| 20260903133550 | 67 | 255 | 4.0 | 9.0 | 0.00 | 0.10 | 0.10 | 96 | 1016.7 |
| 20260903133544 | 68 | 251 | 4.0 | 9.0 | 0.00 | 0.10 | 0.10 | 96 | 1016.6 |
| 20260903132535 | 67 | 252 | 5.0 | 9.0 | 0.00 | 0.10 | 0.09 | 96 | 1016.7 |
| 20260903132032 | 67 | 238 | 6.0 | 9.0 | 0.00 | 0.10 | 0.09 | 96 | 1016.7 |
| 20260903131533 | 67 | 268 | 4.0 | 9.0 | 0.00 | 0.10 | 0.09 | 96 | 1016.6 |
| 20260903131033 | 67 | 269 | 3.0 | 11.0 | 0.00 | 0.10 | 0.09 | 96 | 1016.8 |
| 20260903130530 | 67 | 292 | 4.0 | 11.0 | 0.00 | 0.10 | 0.09 | 96 | 1016.8 |
| 20260903130031 | 67 | 262 | 5.0 | 15.0 | 0.00 | 0.10 | 0.08 | 96 | 1017.0 |
| 20260903125531 | 66 | 231 | 7.0 | 12.0 | 0.00 | 0.10 | 0.08 | 96 | 1016.9 |
| 20260903125030 | 66 | 286 | 7.0 | 12.0 | 0.00 | 0.10 | 0.08 | 96 | 1017.1 |
| 20260903124530 | 0 | 0.0 | 0.0 | 0.00 | 0.00 | 0.00 | 1017.2 | ||
| 20260903123801 | 66 | 227 | 6.0 | 11.0 | 0.03 | 0.10 | 0.09 | 96 | 1017.1 |
| 20260903123303 | 66 | 227 | 6.0 | 11.0 | 0.02 | 0.10 | 0.09 | 96 | 1017.1 |
| 20260903122803 | 66 | 259 | 3.0 | 9.0 | 0.02 | 0.10 | 0.09 | 96 | 1017.0 |
| 20260903122312 | 66 | 257 | 4.0 | 9.0 | 0.02 | 0.10 | 0.09 | 96 | 1017.1 |
| 20260903121301 | 66 | 195 | 7.0 | 11.0 | 0.02 | 0.10 | 0.08 | 96 | 1017.0 |
| 20260903120800 | 66 | 292 | 5.0 | 9.0 | 0.02 | 0.10 | 0.08 | 96 | 1016.9 |
| 20260903120302 | 66 | 244 | 5.0 | 9.0 | 0.02 | 0.10 | 0.08 | 96 | 1016.8 |
| 20260903115801 | 66 | 286 | 5.0 | 9.0 | 0.02 | 0.08 | 0.08 | 96 | 1016.7 |
| 20260903115305 | 66 | 262 | 2.0 | 7.0 | 0.02 | 0.08 | 0.08 | 96 | 1016.6 |
| 20260903114801 | 66 | 233 | 4.0 | 7.0 | 0.03 | 0.08 | 0.07 | 96 | 1016.6 |
| 20260903114301 | 66 | 264 | 3.0 | 9.0 | 0.02 | 0.08 | 0.07 | 96 | 1016.6 |
| 20260903113800 | 66 | 298 | 2.0 | 10.0 | 0.02 | 0.08 | 0.07 | 96 | 1016.7 |
| 20260903113301 | 66 | 281 | 4.0 | 10.0 | 0.02 | 0.08 | 0.07 | 96 | 1016.7 |
| 20260903112803 | 66 | 245 | 5.0 | 9.0 | 0.02 | 0.08 | 0.07 | 96 | 1016.4 |
| 20260903112537 | 66 | 269 | 4.0 | 9.0 | 0.03 | 0.08 | 0.07 | 96 | 1016.4 |
| 20260903111800 | 65 | 254 | 3.0 | 6.0 | 0.02 | 0.08 | 0.06 | 96 | 1016.1 |
| 20260903111301 | 65 | 290 | 2.0 | 6.0 | 0.02 | 0.08 | 0.06 | 96 | 1016.0 |
| 20260903110801 | 65 | 213 | 3.0 | 7.0 | 0.02 | 0.08 | 0.06 | 95 | 1016.0 |
| 20260903110300 | 65 | 262 | 2.0 | 7.0 | 0.02 | 0.08 | 0.06 | 95 | 1016.0 |
| 20260903105801 | 65 | 223 | 3.0 | 6.0 | 0.02 | 0.06 | 0.06 | 95 | 1015.9 |
| 20260903105301 | 65 | 203 | 2.0 | 6.0 | 0.03 | 0.06 | 0.06 | 95 | 1015.9 |
| 20260903104801 | 65 | 228 | 2.0 | 5.0 | 0.02 | 0.06 | 0.05 | 95 | 1015.8 |
| 20260903104301 | 65 | 186 | 2.0 | 4.0 | 0.02 | 0.06 | 0.05 | 95 | 1015.7 |
| 20260903103801 | 66 | 183 | 2.0 | 5.0 | 0.02 | 0.06 | 0.05 | 95 | 1015.6 |
| 20260903103301 | 66 | 164 | 2.0 | 7.0 | 0.02 | 0.06 | 0.05 | 95 | 1015.6 |
| 20260903102801 | 66 | 183 | 4.0 | 10.0 | 0.02 | 0.06 | 0.05 | 95 | 1015.7 |
| 20260903102301 | 66 | 202 | 3.0 | 10.0 | 0.02 | 0.06 | 0.04 | 96 | 1015.4 |
| 20260903101803 | 66 | 210 | 4.0 | 7.0 | 0.02 | 0.06 | 0.04 | 96 | 1015.5 |
| 20260903101301 | 66 | 197 | 4.0 | 7.0 | 0.02 | 0.06 | 0.04 | 96 | 1015.7 |
| 20260903100800 | 66 | 169 | 4.0 | 7.0 | 0.02 | 0.06 | 0.04 | 96 | 1015.5 |
| 20260903100301 | 66 | 159 | 4.0 | 10.0 | 0.02 | 0.06 | 0.04 | 96 | 1015.5 |
| 20260903100038 | 66 | 183 | 3.0 | 10.0 | 0.02 | 0.04 | 0.04 | 96 | 1015.7 |
| 20260903095300 | 66 | 154 | 5.0 | 10.0 | 0.01 | 0.04 | 0.03 | 96 | 1015.7 |
| 20260903095042 | 66 | 179 | 5.0 | 15.0 | 0.01 | 0.04 | 0.03 | 96 | 1015.8 |
| 20260903094301 | 66 | 176 | 6.0 | 15.0 | 0.01 | 0.04 | 0.03 | 96 | 1015.8 |
| 20260903094039 | 66 | 171 | 6.0 | 13.0 | 0.01 | 0.04 | 0.03 | 96 | 1015.7 |
| 20260903093259 | 66 | 223 | 6.0 | 14.0 | 0.02 | 0.04 | 0.03 | 96 | 1015.9 |
| 20260903092759 | 66 | 213 | 8.0 | 14.0 | 0.02 | 0.04 | 0.02 | 96 | 1015.8 |
| 20260903092300 | 65 | 221 | 6.0 | 13.0 | 0.01 | 0.04 | 0.02 | 96 | 1015.7 |
| 20260903091800 | 66 | 230 | 6.0 | 19.0 | 0.01 | 0.04 | 0.02 | 96 | 1015.9 |
| 20260903091301 | 66 | 266 | 7.0 | 19.0 | 0.01 | 0.04 | 0.02 | 96 | 1016.1 |
| 20260903090800 | 66 | 244 | 6.0 | 18.0 | 0.01 | 0.04 | 0.02 | 96 | 1016.2 |
| 20260903090301 | 66 | 228 | 9.0 | 19.0 | 0.01 | 0.04 | 0.02 | 96 | 1016.4 |
| 20260903085801 | 66 | 245 | 10.0 | 22.0 | 0.01 | 0.03 | 0.02 | 96 | 1016.4 |
| 20260903085301 | 66 | 245 | 9.0 | 22.0 | 0.01 | 0.03 | 0.02 | 96 | 1016.1 |
| 20260903084800 | 66 | 314 | 7.0 | 16.0 | 0.01 | 0.03 | 0.02 | 96 | 1016.0 |
| 20260903084338 | 66 | 257 | 7.0 | 15.0 | 0.01 | 0.03 | 0.02 | 96 | 1015.7 |
| 20260903084328 | 66 | 203 | 9.0 | 16.0 | 0.01 | 0.03 | 0.02 | 96 | 1015.8 |
| 20260903083302 | 66 | 233 | 6.0 | 11.0 | 0.00 | 0.03 | 0.01 | 96 | 1015.8 |
| 20260903082800 | 66 | 203 | 6.0 | 12.0 | 0.00 | 0.03 | 0.01 | 96 | 1015.9 |
| 20260903082305 | 66 | 227 | 5.0 | 12.0 | 0.00 | 0.03 | 0.01 | 96 | 1015.7 |
| 20260903081805 | 66 | 214 | 4.0 | 10.0 | 0.00 | 0.03 | 0.01 | 96 | 1015.8 |
| 20260903081759 | 66 | 288 | 4.0 | 10.0 | 0.00 | 0.03 | 0.01 | 96 | 1015.7 |
| 20260903080300 | 66 | 235 | 4.0 | 12.0 | 0.00 | 0.03 | 0.01 | 96 | 1015.6 |
| 20260903075806 | 66 | 223 | 4.0 | 12.0 | 0.00 | 0.03 | 0.01 | 96 | 1015.4 |
| 20260903075300 | 66 | 0 | 4.0 | 9.0 | 0.00 | 0.03 | 0.01 | 96 | 1015.5 |
| 20260903074803 | 66 | 185 | 4.0 | 11.0 | 0.00 | 0.03 | 0.01 | 96 | 1015.2 |
| 20260903074306 | 66 | 219 | 4.0 | 11.0 | 0.00 | 0.03 | 0.01 | 96 | 1015.3 |
| 20260903073800 | 66 | 171 | 5.0 | 14.0 | 0.00 | 0.03 | 0.01 | 96 | 1015.4 |
| 20260903073301 | 66 | 221 | 6.0 | 14.0 | 0.00 | 0.03 | 0.01 | 96 | 1015.6 |
| 20260903073027 | 65 | 190 | 8.0 | 13.0 | 0.00 | 0.03 | 0.01 | 96 | 1015.7 |
| 20260903072301 | 65 | 214 | 4.0 | 13.0 | 0.00 | 0.03 | 0.01 | 96 | 1015.9 |
| 20260903071801 | 65 | 195 | 7.0 | 13.0 | 0.00 | 0.03 | 0.01 | 96 | 1015.9 |
| 20260903071300 | 65 | 202 | 5.0 | 10.0 | 0.00 | 0.03 | 0.01 | 96 | 1016.5 |
| 20260903070800 | 65 | 212 | 4.0 | 10.0 | 0.00 | 0.03 | 0.01 | 96 | 1016.2 |
| 20260903070301 | 65 | 203 | 4.0 | 17.0 | 0.00 | 0.03 | 0.01 | 96 | 1016.5 |
| 20260903065800 | 65 | 230 | 6.0 | 17.0 | 0.00 | 0.03 | 0.01 | 96 | 1015.8 |
| 20260903065301 | 65 | 266 | 3.0 | 9.0 | 0.00 | 0.03 | 0.01 | 96 | 1016.0 |
| 20260903064800 | 65 | 213 | 4.0 | 9.0 | 0.00 | 0.04 | 0.01 | 96 | 1016.2 |
| 20260903064302 | 65 | 254 | 4.0 | 11.0 | 0.00 | 0.04 | 0.01 | 96 | 1016.5 |
| 20260903063800 | 65 | 243 | 6.0 | 11.0 | 0.00 | 0.04 | 0.01 | 96 | 1016.5 |
| 20260903063301 | 65 | 230 | 6.0 | 14.0 | 0.00 | 0.04 | 0.01 | 96 | 1016.7 |
| 20260903062801 | 65 | 286 | 7.0 | 14.0 | 0.00 | 0.04 | 0.01 | 96 | 1016.7 |
| 20260903062301 | 65 | 272 | 7.0 | 14.0 | 0.00 | 0.04 | 0.01 | 96 | 1016.8 |
| 20260903061802 | 65 | 275 | 6.0 | 13.0 | 0.00 | 0.04 | 0.01 | 96 | 1016.9 |
| 20260903061301 | 65 | 269 | 6.0 | 12.0 | 0.00 | 0.04 | 0.01 | 96 | 1016.7 |
| 20260903060806 | 65 | 257 | 5.0 | 14.0 | 0.00 | 0.04 | 0.01 | 96 | 1016.7 |
| 20260903060300 | 65 | 235 | 5.0 | 14.0 | 0.00 | 0.04 | 0.01 | 96 | 1016.6 |
| 20260903055800 | 65 | 268 | 3.0 | 10.0 | 0.00 | 0.04 | 0.01 | 96 | 1016.2 |
| 20260903055300 | 66 | 248 | 3.0 | 10.0 | 0.00 | 0.04 | 0.01 | 96 | 1016.2 |
| 20260903055106 | 66 | 213 | 2.0 | 9.0 | 0.00 | 0.04 | 0.01 | 96 | 1016.1 |
| 20260903054301 | 66 | 185 | 5.0 | 10.0 | 0.00 | 0.04 | 0.01 | 96 | 1015.8 |
| 20260903053801 | 66 | 186 | 5.0 | 12.0 | 0.00 | 0.04 | 0.01 | 96 | 1015.9 |
| 20260903053300 | 66 | 250 | 4.0 | 13.0 | 0.00 | 0.04 | 0.01 | 96 | 1016.1 |
| 20260903052807 | 66 | 221 | 7.0 | 13.0 | 0.00 | 0.04 | 0.01 | 96 | 1016.2 |
| 20260903052302 | 66 | 157 | 7.0 | 13.0 | 0.00 | 0.04 | 0.01 | 96 | 1016.1 |
| 20260903052039 | 66 | 141 | 7.0 | 16.0 | 0.01 | 0.04 | 0.01 | 97 | 1015.9 |
| 20260903051303 | 65 | 148 | 9.0 | 16.0 | 0.01 | 0.04 | 0.01 | 97 | 1016.1 |
| 20260903050800 | 65 | 157 | 9.0 | 15.0 | 0.01 | 0.04 | 0.01 | 97 | 1016.5 |
| 20260903050539 | 65 | 173 | 9.0 | 15.0 | 0.01 | 0.04 | 0.01 | 97 | 1016.5 |
| 20260903045804 | 65 | 0 | 8.0 | 12.0 | 0.01 | 0.03 | 0.01 | 97 | 1016.5 |
| 20260903045541 | 65 | 158 | 8.0 | 15.0 | 0.01 | 0.03 | 0.01 | 97 | 1016.8 |
| 20260903044800 | 65 | 164 | 9.0 | 15.0 | 0.01 | 0.03 | 0.01 | 97 | 1016.6 |
| 20260903044302 | 65 | 155 | 8.0 | 11.0 | 0.01 | 0.03 | 0.01 | 97 | 1016.8 |
| 20260903043801 | 65 | 166 | 7.0 | 10.0 | 0.01 | 0.03 | 0.01 | 97 | 1017.3 |
| 20260903043300 | 65 | 158 | 7.0 | 10.0 | 0.01 | 0.03 | 0.01 | 97 | 1017.3 |
| 20260903042800 | 65 | 162 | 4.0 | 6.0 | 0.01 | 0.03 | 0.01 | 97 | 1017.4 |
| 20260903042538 | 65 | 118 | 4.0 | 7.0 | 0.01 | 0.03 | 0.00 | 97 | 1017.1 |
| 20260903041801 | 65 | 107 | 6.0 | 7.0 | 0.00 | 0.03 | 0.00 | 97 | 1017.2 |
| 20260903041300 | 65 | 117 | 5.0 | 7.0 | 0.00 | 0.03 | 0.00 | 96 | 1017.2 |
| 20260903040800 | 65 | 169 | 3.0 | 6.0 | 0.00 | 0.03 | 0.00 | 96 | 1017.6 |
| 20260903040300 | 65 | 157 | 3.0 | 6.0 | 0.00 | 0.03 | 0.00 | 96 | 1017.2 |
| 20260903035800 | 65 | 149 | 5.0 | 6.0 | 0.00 | 0.03 | 0.03 | 96 | 1017.2 |
| 20260903035300 | 65 | 135 | 2.0 | 7.0 | 0.00 | 0.03 | 0.03 | 96 | 1017.5 |
| 20260903034759 | 65 | 135 | 3.0 | 7.0 | 0.00 | 0.03 | 0.03 | 96 | 1017.5 |
| 20260903034300 | 65 | 141 | 5.0 | 7.0 | 0.00 | 0.03 | 0.03 | 96 | 1018.0 |
| 20260903033800 | 65 | 195 | 3.0 | 9.0 | 0.00 | 0.03 | 0.03 | 96 | 1018.2 |
| 20260903033300 | 65 | 99 | 1.0 | 16.0 | 0.00 | 0.03 | 0.03 | 96 | 1017.9 |
| 20260903032800 | 65 | 102 | 7.0 | 16.0 | 0.00 | 0.03 | 0.03 | 96 | 1017.8 |
| 20260903032301 | 65 | 111 | 9.0 | 13.0 | 0.00 | 0.03 | 0.03 | 96 | 1017.6 |
| 20260903032039 | 65 | 134 | 3.0 | 7.0 | 0.00 | 0.03 | 0.03 | 96 | 1018.4 |
| 20260903031535 | 65 | 247 | 1.0 | 4.0 | 0.00 | 0.03 | 0.03 | 96 | 1019.3 |
| 20260903031036 | 65 | 161 | 2.0 | 4.0 | 0.00 | 0.03 | 0.03 | 96 | 1018.5 |
| 20260903030300 | 65 | 158 | 0.0 | 1.0 | 0.00 | 0.03 | 0.03 | 96 | 1018.2 |
| 20260903025801 | 65 | 158 | 0.0 | 3.0 | 0.00 | 0.03 | 0.03 | 95 | 1018.4 |
| 20260903025301 | 65 | 158 | 0.0 | 6.0 | 0.00 | 0.03 | 0.03 | 95 | 1018.2 |
| 20260903025039 | 65 | 145 | 3.0 | 9.0 | 0.00 | 0.03 | 0.03 | 95 | 1018.2 |
| 20260903024535 | 65 | 162 | 6.0 | 9.0 | 0.00 | 0.03 | 0.03 | 95 | 1018.1 |
| 20260903023800 | 65 | 154 | 6.0 | 12.0 | 0.00 | 0.03 | 0.03 | 95 | 1018.1 |
| 20260903023300 | 65 | 186 | 8.0 | 12.0 | 0.00 | 0.03 | 0.03 | 95 | 1018.0 |
| 20260903022800 | 65 | 217 | 4.0 | 9.0 | 0.00 | 0.03 | 0.03 | 95 | 1017.6 |
| 20260903022259 | 65 | 96 | 1.0 | 6.0 | 0.00 | 0.03 | 0.03 | 95 | 1016.4 |
| 20260903021800 | 65 | 1 | 2.0 | 6.0 | 0.00 | 0.03 | 0.03 | 94 | 1015.9 |
| 20260903021300 | 65 | 18 | 2.0 | 6.0 | 0.00 | 0.03 | 0.03 | 94 | 1016.2 |
| 20260903021036 | 65 | 307 | 3.0 | 6.0 | 0.00 | 0.03 | 0.03 | 94 | 1016.6 |
| 20260903020300 | 65 | 63 | 1.0 | 11.0 | 0.00 | 0.03 | 0.03 | 94 | 1016.7 |
| 20260903015800 | 66 | 250 | 3.0 | 14.0 | 0.00 | 0.03 | 0.03 | 93 | 1017.3 |
| 20260903015300 | 66 | 286 | 8.0 | 17.0 | 0.00 | 0.03 | 0.03 | 93 | 1017.6 |
| 20260903014800 | 66 | 278 | 9.0 | 22.0 | 0.00 | 0.03 | 0.03 | 92 | 1018.4 |
| 20260903014300 | 66 | 258 | 10.0 | 24.0 | 0.00 | 0.03 | 0.03 | 92 | 1018.8 |
| 20260903013759 | 67 | 286 | 14.0 | 27.0 | 0.00 | 0.03 | 0.03 | 91 | 1019.1 |
| 20260903013302 | 68 | 269 | 15.0 | 27.0 | 0.00 | 0.03 | 0.03 | 90 | 1019.6 |
| 20260903012802 | 68 | 310 | 9.0 | 26.0 | 0.00 | 0.03 | 0.03 | 89 | 1019.6 |
| 20260903012300 | 69 | 219 | 6.0 | 26.0 | 0.00 | 0.03 | 0.03 | 89 | 1018.9 |
| 20260903011800 | 70 | 303 | 9.0 | 20.0 | 0.00 | 0.03 | 0.03 | 90 | 1018.2 |
| 20260903011300 | 72 | 306 | 6.0 | 15.0 | 0.00 | 0.03 | 0.03 | 93 | 1018.4 |
| 20260903010800 | 72 | 351 | 3.0 | 7.0 | 0.00 | 0.03 | 0.03 | 94 | 1017.7 |
| 20260903010300 | 72 | 35 | 3.0 | 5.0 | 0.00 | 0.03 | 0.03 | 94 | 1017.3 |
| 20260903005759 | 73 | 35 | 4.0 | 5.0 | 0.00 | 0.03 | 0.03 | 94 | 1017.3 |
| 20260903005300 | 73 | 38 | 0.0 | 4.0 | 0.00 | 0.03 | 0.03 | 93 | 1017.2 |
| 20260903004800 | 73 | 38 | 2.0 | 4.0 | 0.00 | 0.03 | 0.03 | 93 | 1017.0 |
| 20260903004535 | 73 | 11 | 2.0 | 5.0 | 0.00 | 0.03 | 0.03 | 93 | 1016.8 |
| 20260903003800 | 73 | 331 | 1.0 | 10.0 | 0.00 | 0.03 | 0.03 | 93 | 1016.8 |
| 20260903003300 | 73 | 252 | 4.0 | 10.0 | 0.00 | 0.03 | 0.03 | 93 | 1016.6 |
| 20260903003034 | 73 | 157 | 2.0 | 20.0 | 0.00 | 0.03 | 0.03 | 93 | 1016.5 |
| 20260903001800 | 74 | 243 | 8.0 | 41.0 | 0.00 | 0.03 | 0.03 | 92 | 1016.0 |
| 20260903001310 | 74 | 131 | 12.0 | 16.0 | 0.00 | 0.03 | 0.03 | 92 | 1014.4 |
| 20260903001304 | 74 | 306 | 16.0 | 37.0 | 0.00 | 0.03 | 0.03 | 92 | 1014.9 |
| 20260903000817 | 75 | 127 | 8.0 | 11.0 | 0.00 | 0.03 | 0.03 | 91 | 1015.2 |
| 20260902235800 | 75 | 135 | 6.0 | 10.0 | 0.00 | 0.03 | 0.03 | 91 | 1015.6 |
| 20260902235300 | 75 | 151 | 6.0 | 10.0 | 0.00 | 0.03 | 0.03 | 91 | 1015.6 |
| 20260902234800 | 75 | 0 | 6.0 | 7.0 | 0.00 | 0.03 | 0.03 | 91 | 1015.8 |
| 20260902234259 | 75 | 124 | 4.0 | 10.0 | 0.00 | 0.03 | 0.03 | 91 | 1016.4 |
| 20260902233759 | 75 | 131 | 4.0 | 10.0 | 0.00 | 0.03 | 0.03 | 91 | 1016.2 |
| 20260902233300 | 75 | 141 | 7.0 | 10.0 | 0.00 | 0.04 | 0.03 | 90 | 1015.8 |
| 20260902232801 | 76 | 145 | 6.0 | 7.0 | 0.00 | 0.04 | 0.03 | 90 | 1016.4 |
| 20260902232301 | 76 | 145 | 5.0 | 6.0 | 0.00 | 0.04 | 0.03 | 90 | 1016.5 |
| 20260902231759 | 76 | 133 | 5.0 | 6.0 | 0.00 | 0.04 | 0.03 | 89 | 1016.2 |
| 20260902231538 | 76 | 133 | 4.0 | 9.0 | 0.00 | 0.04 | 0.03 | 89 | 1016.6 |
| 20260902230800 | 76 | 138 | 5.0 | 9.0 | 0.00 | 0.04 | 0.03 | 89 | 1016.2 |
| 20260902230259 | 76 | 124 | 6.0 | 9.0 | 0.00 | 0.04 | 0.03 | 89 | 1016.1 |
| 20260902225800 | 76 | 130 | 6.0 | 9.0 | 0.01 | 0.03 | 0.03 | 89 | 1016.4 |
| 20260902225259 | 77 | 152 | 5.0 | 9.0 | 0.01 | 0.03 | 0.03 | 88 | 1016.4 |
| 20260902224759 | 77 | 157 | 7.0 | 9.0 | 0.01 | 0.03 | 0.03 | 88 | 1016.2 |
| 20260902224300 | 77 | 148 | 6.0 | 11.0 | 0.01 | 0.03 | 0.03 | 87 | 1016.0 |
| 20260902223801 | 77 | 142 | 7.0 | 11.0 | 0.01 | 0.03 | 0.03 | 87 | 1016.0 |
| 20260902223259 | 78 | 145 | 9.0 | 11.0 | 0.01 | 0.03 | 0.03 | 87 | 1015.8 |
| 20260902222759 | 78 | 138 | 6.0 | 9.0 | 0.01 | 0.03 | 0.03 | 86 | 1015.9 |
| 20260902222259 | 78 | 152 | 5.0 | 9.0 | 0.01 | 0.03 | 0.03 | 86 | 1016.1 |
| 20260902221759 | 78 | 0 | 5.0 | 10.0 | 0.01 | 0.03 | 0.03 | 85 | 1015.9 |
| 20260902221300 | 79 | 172 | 7.0 | 12.0 | 0.01 | 0.03 | 0.03 | 85 | 1015.9 |
| 20260902220759 | 79 | 164 | 9.0 | 12.0 | 0.01 | 0.03 | 0.03 | 84 | 1015.9 |
| 20260902220259 | 79 | 178 | 7.0 | 13.0 | 0.01 | 0.03 | 0.03 | 84 | 1015.8 |
| 20260902215759 | 79 | 165 | 8.0 | 14.0 | 0.00 | 0.03 | 0.02 | 82 | 1015.7 |
| 20260902215259 | 79 | 171 | 8.0 | 14.0 | 0.00 | 0.03 | 0.02 | 82 | 1015.9 |
| 20260902214759 | 79 | 197 | 6.0 | 13.0 | 0.00 | 0.03 | 0.02 | 82 | 1015.9 |
| 20260902214259 | 80 | 159 | 7.0 | 13.0 | 0.00 | 0.03 | 0.02 | 82 | 1015.9 |
| 20260902213817 | 80 | 0 | 6.0 | 13.0 | 0.00 | 0.03 | 0.02 | 82 | 1016.5 |
| 20260902213810 | 80 | 0 | 5.0 | 12.0 | 0.00 | 0.03 | 0.02 | 81 | 1016.4 |
| 20260902212802 | 80 | 157 | 6.0 | 13.0 | 0.00 | 0.03 | 0.02 | 81 | 1016.4 |
| 20260902212300 | 81 | 173 | 6.0 | 10.0 | 0.00 | 0.03 | 0.02 | 82 | 1016.5 |
| 20260902211758 | 81 | 186 | 4.0 | 10.0 | 0.00 | 0.03 | 0.02 | 82 | 1016.6 |
| 20260902211300 | 80 | 189 | 5.0 | 11.0 | 0.00 | 0.03 | 0.02 | 80 | 1016.6 |
| 20260902210759 | 80 | 196 | 4.0 | 11.0 | 0.00 | 0.03 | 0.02 | 81 | 1016.8 |
| 20260902210300 | 81 | 0 | 5.0 | 10.0 | 0.00 | 0.03 | 0.02 | 79 | 1016.8 |
| 20260902210040 | 81 | 179 | 5.0 | 11.0 | 0.00 | 0.03 | 0.02 | 80 | 1016.9 |
| 20260902205259 | 81 | 168 | 5.0 | 11.0 | 0.00 | 0.03 | 0.02 | 79 | 1016.9 |
| 20260902204800 | 82 | 195 | 5.0 | 9.0 | 0.00 | 0.03 | 0.02 | 78 | 1017.1 |
| 20260902204259 | 82 | 178 | 4.0 | 9.0 | 0.00 | 0.03 | 0.02 | 78 | 1017.0 |
| 20260902203800 | 81 | 221 | 2.0 | 9.0 | 0.00 | 0.03 | 0.02 | 80 | 1017.1 |
| 20260902203259 | 81 | 220 | 5.0 | 9.0 | 0.00 | 0.03 | 0.02 | 79 | 1017.2 |
| 20260902203041 | 81 | 231 | 4.0 | 9.0 | 0.00 | 0.03 | 0.02 | 80 | 1017.3 |
| 20260902202259 | 81 | 258 | 3.0 | 9.0 | 0.00 | 0.03 | 0.02 | 79 | 1017.4 |
| 20260902201758 | 80 | 220 | 3.0 | 11.0 | 0.00 | 0.03 | 0.02 | 80 | 1017.5 |
| 20260902201259 | 80 | 207 | 5.0 | 12.0 | 0.00 | 0.03 | 0.02 | 80 | 1017.4 |
| 20260902200759 | 80 | 309 | 8.0 | 12.0 | 0.00 | 0.03 | 0.02 | 82 | 1017.4 |
| 20260902200259 | 79 | 176 | 2.0 | 9.0 | 0.00 | 0.03 | 0.02 | 84 | 1017.2 |
| 20260902200040 | 79 | 213 | 4.0 | 9.0 | 0.00 | 0.03 | 0.02 | 83 | 1017.3 |
| 20260902195259 | 79 | 216 | 5.0 | 10.0 | 0.00 | 0.03 | 0.02 | 84 | 1017.3 |
| 20260902194759 | 78 | 327 | 5.0 | 10.0 | 0.00 | 0.03 | 0.02 | 86 | 1017.3 |
| 20260902194300 | 78 | 165 | 6.0 | 10.0 | 0.00 | 0.03 | 0.02 | 86 | 1017.5 |
| 20260902193759 | 78 | 155 | 5.0 | 9.0 | 0.00 | 0.03 | 0.02 | 84 | 1017.4 |
| 20260902193259 | 77 | 203 | 5.0 | 10.0 | 0.00 | 0.03 | 0.02 | 85 | 1017.5 |
| 20260902193254 | 77 | 176 | 6.0 | 12.0 | 0.00 | 0.03 | 0.02 | 86 | 1017.6 |
| 20260902192259 | 77 | 199 | 5.0 | 12.0 | 0.00 | 0.03 | 0.02 | 88 | 1017.7 |
| 20260902191800 | 76 | 152 | 6.0 | 12.0 | 0.00 | 0.03 | 0.02 | 87 | 1017.7 |
| 20260902191300 | 76 | 158 | 6.0 | 13.0 | 0.00 | 0.03 | 0.02 | 89 | 1017.8 |
| 20260902190800 | 75 | 183 | 8.0 | 13.0 | 0.00 | 0.03 | 0.02 | 89 | 1017.8 |
| 20260902190259 | 75 | 230 | 7.0 | 12.0 | 0.00 | 0.03 | 0.02 | 89 | 1018.0 |
| 20260902185800 | 75 | 161 | 5.0 | 10.0 | 0.00 | 0.03 | 0.02 | 90 | 1018.1 |
| 20260902185300 | 75 | 169 | 6.0 | 10.0 | 0.00 | 0.03 | 0.02 | 88 | 1018.1 |
| 20260902184800 | 75 | 219 | 4.0 | 10.0 | 0.00 | 0.03 | 0.02 | 86 | 1018.1 |
| 20260902184300 | 76 | 176 | 4.0 | 10.0 | 0.00 | 0.03 | 0.02 | 84 | 1018.0 |
| 20260902183759 | 76 | 264 | 6.0 | 11.0 | 0.00 | 0.03 | 0.02 | 84 | 1018.7 |
| 20260902183259 | 77 | 243 | 5.0 | 11.0 | 0.00 | 0.03 | 0.02 | 83 | 1018.8 |
| 20260902182759 | 77 | 257 | 7.0 | 12.0 | 0.00 | 0.03 | 0.02 | 84 | 1018.8 |
| 20260902182259 | 77 | 319 | 7.0 | 12.0 | 0.00 | 0.03 | 0.02 | 85 | 1018.8 |
| 20260902181759 | 77 | 233 | 4.0 | 11.0 | 0.00 | 0.03 | 0.02 | 85 | 1018.8 |
| 20260902181319 | 77 | 224 | 4.0 | 11.0 | 0.00 | 0.03 | 0.02 | 86 | 1018.4 |
| 20260902181311 | 77 | 329 | 5.0 | 11.0 | 0.00 | 0.03 | 0.02 | 84 | 1018.5 |
| 20260902180258 | 77 | 254 | 6.0 | 11.0 | 0.00 | 0.03 | 0.02 | 86 | 1018.4 |
| 20260902175759 | 77 | 235 | 2.0 | 9.0 | 0.00 | 0.03 | 0.02 | 86 | 1018.5 |
| 20260902175536 | 77 | 157 | 4.0 | 9.0 | 0.00 | 0.03 | 0.02 | 86 | 1018.4 |
| 20260902174759 | 77 | 216 | 3.0 | 10.0 | 0.00 | 0.03 | 0.02 | 87 | 1018.5 |
| 20260902174259 | 77 | 237 | 5.0 | 10.0 | 0.00 | 0.03 | 0.02 | 86 | 1018.5 |
| 20260902173759 | 76 | 230 | 4.0 | 7.0 | 0.00 | 0.03 | 0.02 | 86 | 1018.6 |
| 20260902173536 | 76 | 169 | 2.0 | 7.0 | 0.00 | 0.03 | 0.02 | 87 | 1018.4 |
| 20260902172759 | 76 | 172 | 4.0 | 7.0 | 0.00 | 0.03 | 0.02 | 87 | 1018.2 |
| 20260902172259 | 76 | 193 | 6.0 | 9.0 | 0.00 | 0.03 | 0.02 | 87 | 1018.1 |
| 20260902171759 | 77 | 158 | 6.0 | 9.0 | 0.00 | 0.03 | 0.02 | 86 | 1018.1 |
| 20260902171300 | 77 | 179 | 5.0 | 9.0 | 0.00 | 0.03 | 0.02 | 86 | 1018.4 |
| 20260902170758 | 78 | 161 | 6.0 | 9.0 | 0.00 | 0.03 | 0.02 | 87 | 1018.1 |
| 20260902170259 | 78 | 283 | 4.0 | 7.0 | 0.00 | 0.03 | 0.02 | 86 | 1018.0 |
| 20260902170238 | 78 | 180 | 4.0 | 9.0 | 0.00 | 0.03 | 0.02 | 85 | 1018.0 |
| 20260902165538 | 78 | 173 | 6.0 | 9.0 | 0.00 | 0.03 | 0.02 | 86 | 1018.4 |
| 20260902164759 | 77 | 188 | 1.0 | 7.0 | 0.00 | 0.03 | 0.02 | 87 | 1018.4 |
| 20260902164259 | 77 | 189 | 4.0 | 9.0 | 0.00 | 0.03 | 0.02 | 87 | 1018.4 |
| 20260902164038 | 76 | 234 | 4.0 | 9.0 | 0.00 | 0.03 | 0.02 | 89 | 1018.4 |
| 20260902163537 | 76 | 165 | 3.0 | 9.0 | 0.00 | 0.03 | 0.02 | 91 | 1018.5 |
| 20260902162759 | 76 | 220 | 3.0 | 9.0 | 0.00 | 0.03 | 0.02 | 91 | 1018.5 |
| 20260902162538 | 75 | 204 | 2.0 | 10.0 | 0.00 | 0.03 | 0.02 | 92 | 1018.8 |
| 20260902161759 | 75 | 224 | 4.0 | 10.0 | 0.00 | 0.03 | 0.02 | 92 | 1018.7 |
| 20260902161259 | 75 | 195 | 4.0 | 10.0 | 0.00 | 0.03 | 0.02 | 93 | 1018.8 |
| 20260902160759 | 74 | 203 | 2.0 | 10.0 | 0.00 | 0.03 | 0.02 | 93 | 1018.9 |
| 20260902160300 | 74 | 206 | 3.0 | 9.0 | 0.00 | 0.03 | 0.02 | 94 | 1018.8 |